Date String (YYYY-MM-DD hh:mm:ss) UTC,Instrument flags,absolute air pressure of the measurement (hPa),sample flow rate (lpm),inlet stack bypass flow (lpm),air temperature of the measurement (°C),ambient temperature measured by the external sensor (°C),aerosol sample conditioner tube jacket temperature (°C),OPC LED temperature (°C),internal box temperature (°C),relative humidity of the measurement (%),span deviation,mass concentration of particles derived from Lorenz-Mie calculation of OPC scattering (μg/m³),mass concentration of particles derived from Lorenz-Mie calculation of OPC scattering (μg/m³),mass concentration of particles derived from Lorenz-Mie calculation of OPC scattering (μg/m³)
DateTimeUTC,F1_M11,P_M11,Q1_M11,Q2_M11,T1_M11,T2_M11,T3_M11,T4_M11,T5_M11,U1_M11,ZSPAN_M11,X0_M11,X2_M11,X1_M11
2023-12-21 17:00:00,SystemResetWarning,0832.8,4.99,000.00,024.4,023.7,000.0,032.6,025.9,14.4,0000.0,0004.61,0001.98,0001.55
2023-12-21 17:01:00,SystemResetWarning,0832.8,4.99,000.00,024.4,023.7,000.0,032.6,025.9,14.4,0000.0,0004.54,0001.97,0001.53
2023-12-21 17:02:00,SystemResetWarning,0832.8,5.02,000.00,024.4,023.7,000.0,032.6,025.9,14.6,0000.0,0005.47,0001.96,0001.52
2023-12-21 17:03:00,SystemResetWarning,0832.8,5.00,000.00,024.4,023.8,000.0,032.6,025.9,14.6,0000.0,0006.16,0001.96,0001.52
2023-12-21 17:04:00,SystemResetWarning,0832.8,4.98,000.00,024.5,023.8,000.0,032.6,025.9,14.7,0000.0,0006.36,0001.96,0001.51
2023-12-21 17:05:00,SystemResetWarning,0832.8,5.00,000.00,024.5,023.8,000.0,032.6,026.0,14.5,0000.0,0006.08,0001.99,0001.51
2023-12-21 17:06:00,SystemResetWarning,0832.8,5.00,000.00,024.5,023.8,000.0,032.6,026.0,14.5,0000.0,0006.54,0002.02,0001.51
2023-12-21 17:07:00,SystemResetWarning,0832.8,5.00,000.00,024.5,023.8,000.0,032.7,026.0,14.6,0000.0,0006.62,0001.98,0001.50
2023-12-21 17:08:00,SystemResetWarning,0832.8,5.01,000.00,024.5,023.8,000.0,032.7,026.0,14.6,0000.0,0006.56,0001.94,0001.49
2023-12-21 17:09:00,SystemResetWarning,0832.8,5.00,000.00,024.5,023.9,000.0,032.7,026.0,14.6,0000.0,0006.43,0001.90,0001.48
2023-12-21 17:10:00,SystemResetWarning,0833.0,4.99,000.00,024.6,023.9,000.0,032.7,026.0,14.6,0000.0,0006.50,0001.92,0001.48
2023-12-21 17:11:00,SystemResetWarning,0833.2,4.99,000.00,024.6,023.9,000.0,032.7,026.0,14.8,0000.0,0006.84,0001.93,0001.48
2023-12-21 17:12:00,SystemResetWarning,0833.3,5.00,000.00,024.6,023.9,000.0,032.7,026.1,14.7,0000.0,0007.57,0001.96,0001.48
2023-12-21 17:13:00,SystemResetWarning,0833.0,5.00,000.00,024.6,023.9,000.0,032.7,026.1,14.8,0000.0,0007.04,0002.00,0001.47
2023-12-21 17:14:00,SystemResetWarning,0832.9,5.00,000.00,024.6,023.9,000.0,032.8,026.1,14.6,0000.0,0006.61,0002.05,0001.46
2023-12-21 17:15:00,SystemResetWarning,0833.0,5.00,000.00,024.6,024.0,000.0,032.8,026.1,14.7,0000.0,0006.39,0002.05,0001.46
2023-12-21 17:16:00,SystemResetWarning,0832.9,5.00,000.00,024.7,024.0,000.0,032.8,026.2,14.7,0000.0,0006.27,0002.02,0001.46
2023-12-21 17:17:00,SystemResetWarning,0832.8,5.01,000.00,024.7,024.0,000.0,032.8,026.2,15.0,0000.0,0005.96,0002.01,0001.45
2023-12-21 17:18:00,SystemResetWarning,0832.8,5.00,000.00,024.7,024.0,000.0,032.8,026.2,15.2,0000.0,0005.43,0002.00,0001.45
2023-12-21 17:19:00,SystemResetWarning,0832.8,4.99,000.00,024.7,024.0,000.0,032.8,026.2,15.1,0000.0,0006.64,0001.98,0001.44
2023-12-21 17:20:00,SystemResetWarning,0832.8,4.99,000.00,024.7,024.1,000.0,032.9,026.2,14.9,0000.0,0007.65,0001.97,0001.44
2023-12-21 17:21:00,SystemResetWarning,0832.8,4.99,000.00,024.7,024.1,000.0,032.9,026.3,14.8,0000.0,0007.75,0001.93,0001.43
2023-12-21 17:22:00,SystemResetWarning,0832.7,5.00,000.00,024.8,024.1,000.0,032.9,026.3,14.8,0000.0,0007.83,0001.92,0001.44
2023-12-21 17:23:00,SystemResetWarning,0832.8,5.01,000.00,024.8,024.1,000.0,032.9,026.3,14.7,0000.0,0007.30,0001.92,0001.46
2023-12-21 17:24:00,SystemResetWarning,0832.7,5.00,000.00,024.8,024.1,000.0,032.9,026.3,14.7,0000.0,0007.21,0001.96,0001.47
2023-12-21 17:25:00,SystemResetWarning,0832.7,5.00,000.00,024.8,024.2,000.0,032.9,026.3,14.6,0000.0,0006.97,0001.90,0001.48
2023-12-21 17:26:00,SystemResetWarning,0832.7,5.00,000.00,024.8,024.2,000.0,033.0,026.4,14.8,0000.0,0006.81,0001.86,0001.47
2023-12-21 17:27:00,SystemResetWarning,0832.7,4.99,000.00,024.9,024.2,000.0,033.0,026.4,14.8,0000.0,0006.93,0001.86,0001.45
2023-12-21 17:28:00,SystemResetWarning,0832.7,5.00,000.00,024.9,024.2,000.0,033.0,026.3,15.0,0000.0,0006.72,0001.80,0001.45
2023-12-21 17:29:00,SystemResetWarning,0832.7,5.01,000.00,024.9,024.2,000.0,033.0,026.4,14.9,0000.0,0006.54,0001.80,0001.43
2023-12-21 17:30:00,SystemResetWarning,0832.7,5.01,000.00,024.9,024.3,000.0,033.0,026.5,14.9,0000.0,0006.09,0001.85,0001.42
2023-12-21 17:31:00,SystemResetWarning,0832.7,4.99,000.00,024.9,024.3,000.0,033.0,026.5,14.8,0000.0,0006.73,0001.88,0001.41
2023-12-21 17:32:00,SystemResetWarning,0832.7,5.00,000.00,025.0,024.3,000.0,033.1,026.5,14.8,0000.0,0006.46,0001.93,0001.41
2023-12-21 17:33:00,SystemResetWarning,0832.7,4.99,000.00,025.0,024.3,000.0,033.1,026.4,15.0,0000.0,0007.17,0001.96,0001.42
2023-12-21 17:34:00,SystemResetWarning,0832.7,4.99,000.00,025.0,024.3,000.0,033.1,026.5,14.9,0000.0,0007.08,0001.96,0001.41
2023-12-21 17:35:00,SystemResetWarning,0832.7,5.00,000.00,025.0,024.4,000.0,033.1,026.5,14.9,0000.0,0006.99,0001.94,0001.40
2023-12-21 17:36:00,SystemResetWarning,0832.7,5.01,000.00,025.0,024.4,000.0,033.1,026.5,14.6,0000.0,0007.03,0001.94,0001.40
2023-12-21 17:37:00,SystemResetWarning,0832.7,5.00,000.00,025.1,024.4,000.0,033.2,026.6,14.8,0000.0,0007.03,0001.95,0001.41
2023-12-21 17:38:00,SystemResetWarning,0832.7,5.00,000.00,025.1,024.4,000.0,033.2,026.5,14.7,0000.0,0006.91,0001.92,0001.42
2023-12-21 17:39:00,SystemResetWarning,0832.7,4.99,000.00,025.1,024.4,000.0,033.2,026.6,14.6,0000.0,0006.83,0001.91,0001.43
2023-12-21 17:40:00,SystemResetWarning,0832.7,4.99,000.00,025.1,024.5,000.0,033.2,026.6,14.4,0000.0,0006.84,0001.95,0001.46
2023-12-21 17:41:00,SystemResetWarning,0832.7,5.00,000.00,025.1,024.5,000.0,033.2,026.6,14.4,0000.0,0006.22,0001.91,0001.47
2023-12-21 17:42:00,SystemResetWarning,0832.7,5.01,000.00,025.1,024.5,000.0,033.2,026.6,14.5,0000.0,0004.59,0001.93,0001.46
2023-12-21 17:43:00,SystemResetWarning,0832.7,5.01,000.00,025.2,024.5,000.0,033.3,026.6,14.5,0000.0,0004.15,0001.93,0001.45
2023-12-21 17:44:00,SystemResetWarning,0832.6,5.00,000.00,025.2,024.5,000.0,033.3,026.7,14.6,0000.0,0004.33,0001.86,0001.41
2023-12-21 17:45:00,SystemResetWarning,0832.6,4.99,000.00,025.2,024.5,000.0,033.3,026.7,14.7,0000.0,0005.94,0001.81,0001.38
2023-12-21 17:46:00,SystemResetWarning,0832.6,4.99,000.00,025.2,024.6,000.0,033.3,026.7,14.6,0000.0,0005.77,0001.71,0001.34
2023-12-21 17:47:00,SystemResetWarning,0832.7,5.00,000.00,025.2,024.6,000.0,033.3,026.7,14.7,0000.0,0005.72,0001.66,0001.30
2023-12-21 17:48:00,SystemResetWarning,0832.6,5.00,000.00,025.3,024.6,000.0,033.4,026.8,14.6,0000.0,0005.78,0001.65,0001.26
2023-12-21 17:49:00,SystemResetWarning,0832.7,5.00,000.00,025.3,024.6,000.0,033.4,026.8,14.4,0000.0,0005.79,0001.61,0001.22
2023-12-21 17:50:00,SystemResetWarning,0832.7,5.00,000.00,025.3,024.6,000.0,033.4,026.8,14.6,0000.0,0005.88,0001.62,0001.20
2023-12-21 17:51:00,SystemResetWarning,0832.7,5.01,000.00,025.3,024.7,000.0,033.4,026.8,14.4,0000.0,0005.88,0001.59,0001.17
2023-12-21 17:52:00,SystemResetWarning,0832.6,5.01,000.00,025.3,024.7,000.0,033.4,026.8,14.5,0000.0,0006.02,0001.61,0001.17
2023-12-21 17:53:00,SystemResetWarning,0832.6,5.00,000.00,025.4,024.7,000.0,033.5,026.9,14.6,0000.0,0006.22,0001.66,0001.23
2023-12-21 17:54:00,SystemResetWarning,0832.6,4.99,000.00,025.4,024.7,000.0,033.5,026.9,14.6,0000.0,0006.49,0001.74,0001.29
2023-12-21 17:55:00,SystemResetWarning,0832.6,5.00,000.00,025.4,024.7,000.0,033.5,026.9,14.7,0000.0,0005.52,0001.80,0001.33
2023-12-21 17:56:00,SystemResetWarning,0832.6,5.00,000.00,025.4,024.8,000.0,033.5,026.9,14.6,0000.0,0003.61,0001.84,0001.37
2023-12-21 17:57:00,SystemResetWarning,0832.6,5.02,000.00,025.4,024.8,000.0,033.5,026.9,14.4,0000.0,0003.96,0001.89,0001.41
2023-12-21 17:58:00,SystemResetWarning,0832.6,5.00,000.00,025.5,024.8,000.0,033.6,026.9,14.4,0000.0,0004.20,0002.00,0001.48
2023-12-21 17:59:00,SystemResetWarning,0832.6,4.99,000.00,025.5,024.8,000.0,033.6,026.9,14.5,0000.0,0004.48,0002.13,0001.57
